This demonstration page uses our WeatherBlox Daily Observations layout. Learn more.

41.55636, -103.73856

Hourly Observations for January 30, 2019

Temp ( °F °C ) Dew Point ( °F °C ) Humidity (%) Winds ( mph kmh ) Pressure ( in mb ) Visibility ( mi km ) Precip ( " mm )
12:53 am 00:53 Clear 6 -14.4 3 -16.1 87 87 E 5 7 30.15 1021 10 16.09344 0 0
1:53 am 01:53 Clear 5 -15 2 -16.7 87 87 E 9 15 30.12 1020 10 16.09344 0 0
2:53 am 02:53 Clear 5 -15 1 -17.2 83 83 E 9 15 30.09 1019 10 16.09344 0 0
3:53 am 03:53 Clear 4 -15.6 0 -17.8 83 83 E 9 15 30.06 1018 10 16.09344 0 0
4:53 am 04:53 Clear 3 -16.1 -1 -18.3 83 83 E 3 6 30.06 1018 10 16.09344 0 0
5:53 am 05:53 Clear 3 -16.1 -1 -18.3 83 83 E 3 6 30.06 1018 10 16.09344 0 0
7:53 am 07:53 Sunny 5 -15 2 -16.7 87 87 WNW 5 7 30.06 1018 10 16.09344 0 0
8:53 am 08:53 Sunny 11 -11.7 7 -13.9 84 84 WNW 7 11 30.06 1018 10 16.09344 0 0
9:53 am 09:53 Sunny 18 -7.8 11 -11.7 74 74 WNW 12 19 30.06 1018 10 16.09344 0 0
10:53 am 10:53 Sunny 23 -5 12 -11.1 63 63 WNW 9 15 30.03 1017 10 16.09344 0 0
11:53 am 11:53 Sunny 34 1.1 14 -10 44 44 WNW 14 22 29.97 1015 10 16.09344 0 0
12:53 pm 12:53 Sunny 41 5 11 -11.7 29 29 WNW 12 19 29.91 1013 10 16.09344 0 0
1:53 pm 13:53 Sunny 45 7.2 5 -15 19 19 WNW 14 22 29.88 1012 10 16.09344 0 0
2:53 pm 14:53 Sunny 43 6.1 6 -14.4 22 22 NW 10 17 29.88 1012 10 16.09344 0 0
3:53 pm 15:53 Sunny 43 6.1 7 -13.9 22 22 WNW 6 9 29.88 1012 10 16.09344 0 0
4:53 pm 16:53 Sunny 38 3.3 9 -12.8 30 30 W 7 11 29.88 1012 10 16.09344 0 0
5:53 pm 17:53 Clear 36 2.2 11 -11.7 35 35 W 7 11 29.91 1013 10 16.09344 0 0
6:53 pm 18:53 Mostly Cloudy 36 2.2 11 -11.7 35 35 WNW 5 7 29.91 1013 10 16.09344 0 0
7:53 pm 19:53 Cloudy 32 0 13 -10.6 45 45 Calm 29.91 1013 10 16.09344 0 0
8:53 pm 20:53 Cloudy 32 0 14 -10 47 47 N 5 7 29.91 1013 10 16.09344 0 0
9:53 pm 21:53 Cloudy 31 -0.6 16 -8.9 54 54 N 3 6 29.88 1012 10 16.09344 0 0
10:53 pm 22:53 Mostly Cloudy 29 -1.7 15 -9.4 56 56 Calm 29.88 1012 10 16.09344 0 0
11:53 pm 23:53 Cloudy 33 0.6 13 -10.6 43 43 SSW 3 6 29.83 1010 10 16.09344 0 0

Powered by AerisWeather